User: anonymous
Location: Unspecified
(0.0000°N, 0.0000°E)
Time: 01:48:48
(UTC+00:00)
Language:

IBEX - Orbit

View from above orbital plane
View from above orbital plane
View from above satellite
View from above satellite

Ground track
Ground track

The orbit data is extracted from the following two-line orbital elements,

1 33401U 08051A   14115.08955737 -.00001468  00000-0  00000+0 0   957
2 33401 001.0833 085.3477 5107003 062.8227 009.9939 00.09949238  2370
Epoch (UTC): 25 April 2014 02:08:57
Eccentricity: 0.5107003
inclination: 1.0833°
perigee height: 89882 km
apogee height: 290821 km
right ascension of ascending node: 85.3477°
argument of perigee: 62.8227°
revolutions per day: 0.09949238
mean anomaly at epoch: 9.9939°
orbit number at epoch: 237

The dashed part of the orbit path shows where the satellite is in the earth's shadow,  

DLR